STARLINK-1308, 45419

Orbit data source: Space-Track

STARLINK-1308, 45419 is a payload satellite owned by SpaceX/Seattle (US) in LEO that was launched on Wed, 18 Mar 2020 UTC via an FALCON 9 launch vehicle from the Air Force Eastern Test Range (AFETR). Payload-class satellites include a variety of spacecraft equipped with specific instruments for various scientific and technological missions. These include communications satellites like Starlink; space stations such as the ISS; scientific satellites like the Hubble; Earth observation satellites from companies like Planet Labs, Umbra, and HawkEye 360; GPS; miniature CubeSats for education and research; and military/defense satellites.

Loading next visibility...
Identifier
45419, 2020-019BM
Orbit
LEO
Country
Flag of USUS
Related business
Manufacturer
SpaceX/Seattle
Mission
Partially operational Commercial Communications
Bus & Motor
STARLINK, Unknown motor
Mass
260 kg wet, ~248 kg dry
Launch date (UTC)
2020-03-18 (6 years ago)
Launch vehicle
FALCON 9
Launch site
Air Force Eastern Test Range (AFETR)
Object type
Payload
Rocket body
Debris
Shape & HBR
Box + 1 Pan, 10.1 m
Radar Cross Section
13.562 m², Large (>1 m²)

Expand to show TLE details & history
Last TLE update: 7 hours ago

TLE from 7 hours ago
0 STARLINK-1308
1 45419U 20019BM  26120.00001157  .00072046  00000-0  87141-3 0  9993
2 45419  53.0478 263.9034 0005927 258.3540 336.0856 15.60049692  5995
Epoch: 2026-04-30T00:00Z
TLE epoch observation values (Epoch: 2026-04-30T00:00:00.999Z)
Latitude
-40.73709°
Longitude
-93.94319°
Altitude
397.303 km
Speed
7.674 km/s
True Right ascension
08h 16m 03s
True Declination
-40° 33' 29"
Sunlit
Object was in daylight at epoch
Visualization orbit readout
Latitude
Unknown
Longitude
Unknown
Altitude
Unknown
Speed
Unknown
Apparent Right ascension
Unknown
Apparent Declination
Unknown
Sunlit
N/A
Visualization observer readout
Local Sidereal Time
14:31:33
Azimuth
Unknown
Elevation
Unknown
Doppler factor
Unknown
Orbital elements
Apogee altitude
391.802 km
Perigee altitude
383.781 km
Semi-major axis
6,765.928 km
Eccentricity
0.00059
Inclination
53.0478°
RAAN
263.9034°
Arg. of periapsis
258.354°
True anomaly
336.05805°
Mean anomaly
336.0856°
Eccentric anomaly
336.07183°
Mean motion
3.89989 °/min
Orbital period
92.31 mins
BSTAR
0.00087141
Loading maneuver chart data...
Computing Atmospheric mass density...
Loading historical data...
Loading historical data...
Loading historical data...
Loading historical data...
Loading historical data...
Loading historical data...
Loading historical data...

Documentation

Showing up to 5 results
|